FW9830 Weather Reports


Display with metric or nautical units.
time (UTC)temp
F
wind
direction
speed
MPH
gust
MPH
rain 1hr
in
rain 24hr
in
rain mn
in
humidity
%
barometer
mb
20260507101531 37 270 0.0 3.0 0.00 0.00 0.00 71 1014.8
20260507101028 37 257 0.0 2.0 0.00 0.00 0.00 72 1014.9
20260507100525 36 286 0.0 3.0 0.00 0.00 0.00 72 1015.0
20260507100023 36 257 0.0 3.0 0.00 0.00 0.00 72 1015.1
20260507095521 36 259 2.0 2.0 0.00 0.00 0.00 72 1014.8
20260507095017 36 246 0.0 3.0 0.00 0.00 0.00 71 1015.0
20260507094513 36 276 2.0 3.0 0.00 0.00 0.00 71 1014.9
20260507094011 36 285 1.0 3.0 0.00 0.00 0.00 71 1014.8
20260507093508 35 262 2.0 2.0 0.00 0.00 0.00 72 1015.1
20260507093007 35 237 1.0 3.0 0.00 0.00 0.00 72 1015.2
20260507092503 35 248 2.0 3.0 0.00 0.00 0.00 72 1015.1
20260507091959 36 294 0.0 3.0 0.00 0.00 0.00 72 1015.2
20260507091455 36 262 2.0 2.0 0.00 0.00 0.00 72 1015.3
20260507090951 36 261 2.0 3.0 0.00 0.00 0.00 72 1015.0
20260507090442 36 266 2.0 3.0 0.00 0.00 0.00 72 1015.2
20260507085938 36 254 2.0 2.0 0.00 0.00 0.00 74 1015.1
20260507085436 35 285 2.0 2.0 0.00 0.00 0.00 75 1015.2
20260507084933 35 270 1.0 2.0 0.00 0.00 0.00 75 1015.4
20260507084430 36 250 2.0 2.0 0.00 0.00 0.00 73 1015.2
20260507083927 36 260 2.0 3.0 0.00 0.00 0.00 72 1015.2
20260507083423 36 265 2.0 3.0 0.00 0.00 0.00 72 1015.3
20260507082919 37 297 1.0 3.0 0.00 0.00 0.00 70 1015.5
20260507082415 37 319 2.0 3.0 0.00 0.00 0.00 69 1015.1
20260507081912 37 324 2.0 3.0 0.00 0.00 0.00 70 1015.1
20260507081408 37 326 2.0 3.0 0.00 0.00 0.00 70 1015.0
20260507080905 38 298 4.0 4.0 0.00 0.00 0.00 68 1015.3
20260507080402 37 313 3.0 4.0 0.00 0.00 0.00 70 1015.3
20260507075857 37 291 3.0 4.0 0.00 0.00 0.00 70 1015.5
20260507075353 37 311 3.0 4.0 0.00 0.00 0.00 70 1015.3
20260507074850 38 322 4.0 5.0 0.00 0.00 0.00 68 1015.0
20260507074347 38 310 5.0 5.0 0.00 0.00 0.00 66 1015.1
20260507073844 38 326 3.0 4.0 0.00 0.00 0.00 67 1015.1
20260507073341 38 307 2.0 4.0 0.00 0.00 0.00 66 1015.2
20260507072838 39 309 4.0 5.0 0.00 0.00 0.00 65 1015.2
20260507072336 39 352 3.0 4.0 0.00 0.00 0.00 65 1015.2
20260507071833 39 325 4.0 5.0 0.00 0.00 0.00 65 1015.2
20260507071330 39 345 3.0 4.0 0.00 0.00 0.00 64 1015.3
20260507070826 39 352 3.0 4.0 0.00 0.00 0.00 65 1015.3
20260507070324 39 352 3.0 5.0 0.00 0.00 0.00 65 1015.3
20260507065820 39 301 3.0 4.0 0.00 0.00 0.00 65 1015.5
20260507065317 39 305 3.0 3.0 0.00 0.00 0.00 64 1015.7
20260507064814 39 346 3.0 4.0 0.00 0.00 0.00 64 1015.7
20260507064313 40 340 5.0 6.0 0.00 0.00 0.00 63 1015.6
20260507063810 40 322 3.0 4.0 0.00 0.00 0.00 62 1015.6
20260507063307 40 301 3.0 4.0 0.00 0.00 0.00 61 1015.8
20260507062803 40 323 4.0 4.0 0.00 0.00 0.00 61 1015.9
20260507062300 41 326 3.0 5.0 0.00 0.00 0.00 60 1015.7
20260507061759 40 297 2.0 3.0 0.00 0.00 0.00 62 1015.9
20260507061256 40 283 2.0 3.0 0.00 0.00 0.00 62 1016.1
20260507060754 40 257 3.0 3.0 0.00 0.00 0.00 62 1015.7
20260507060250 41 346 2.0 3.0 0.00 0.00 0.00 59 1016.0
20260507055747 41 342 2.0 3.0 0.00 0.00 0.00 59 1016.0
20260507055242 41 356 2.0 3.0 0.00 0.00 0.00 60 1016.1
20260507054739 41 32 3.0 5.0 0.00 0.00 0.00 60 1016.0
20260507054236 41 29 1.0 3.0 0.00 0.00 0.00 60 1016.1
20260507053733 41 358 3.0 5.0 0.00 0.00 0.00 58 1016.0
20260507053230 41 352 3.0 5.0 0.00 0.00 0.00 58 1016.2
20260507052730 42 341 4.0 7.0 0.00 0.00 0.00 57 1016.3
20260507052225 42 349 3.0 6.0 0.00 0.00 0.00 57 1016.3
20260507051724 42 348 3.0 4.0 0.00 0.00 0.00 57 1016.2
20260507051220 42 328 3.0 7.0 0.00 0.00 0.00 56 1016.3
20260507050717 43 336 6.0 7.0 0.00 0.00 0.00 56 1016.3
20260507050214 42 315 9.0 9.0 0.00 0.00 0.00 57 1016.3
20260507045710 43 317 4.0 6.0 0.00 0.00 0.00 57 1016.2
20260507045206 43 327 4.0 9.0 0.00 0.00 0.00 58 1016.2
20260507044704 43 344 5.0 11.0 0.00 0.00 0.00 57 1016.5
20260507044200 43 347 8.0 9.0 0.00 0.00 0.00 57 1016.3
20260507043657 43 328 5.0 8.0 0.00 0.00 0.00 57 1016.4
20260507043154 43 322 5.0 14.0 0.00 0.00 0.00 57 1016.2
20260507042650 43 320 6.0 15.0 0.00 0.00 0.00 58 1016.2
20260507042145 43 323 8.0 10.0 0.00 0.00 0.00 59 1016.4
20260507041642 43 321 5.0 15.0 0.00 0.00 0.00 58 1016.2
20260507041138 43 335 7.0 14.0 0.00 0.00 0.00 58 1016.2
20260507040636 42 306 9.0 12.0 0.00 0.00 0.00 59 1016.2
20260507040132 42 335 5.0 9.0 0.00 0.00 0.00 60 1016.0
20260507035628 42 305 4.0 7.0 0.00 0.00 0.00 62 1016.1
20260507035124 42 289 6.0 9.0 0.00 0.00 0.00 61 1015.9
20260507034621 42 295 5.0 8.0 0.00 0.00 0.00 60 1016.2
20260507034119 42 312 9.0 10.0 0.00 0.00 0.00 60 1016.2
20260507033617 42 317 7.0 10.0 0.00 0.00 0.00 59 1016.3
20260507033114 42 298 7.0 12.0 0.00 0.00 0.00 60 1016.1
20260507032611 42 312 7.0 12.0 0.00 0.00 0.00 60 1016.0
20260507032107 42 324 8.0 11.0 0.00 0.00 0.00 60 1016.1
20260507031604 42 313 10.0 11.0 0.00 0.00 0.00 60 1015.8
20260507031101 42 302 6.0 11.0 0.00 0.00 0.00 60 1016.0
20260507030557 42 287 5.0 11.0 0.00 0.00 0.00 59 1015.8
20260507030055 42 310 8.0 11.0 0.00 0.00 0.00 60 1015.9
20260507025552 42 301 8.0 12.0 0.00 0.00 0.00 60 1016.0
20260507025049 42 319 8.0 12.0 0.00 0.00 0.00 60 1015.8
20260507024547 42 312 8.0 10.0 0.00 0.00 0.00 61 1015.8
20260507024044 42 320 7.0 11.0 0.00 0.00 0.00 60 1016.0
20260507023539 42 296 7.0 10.0 0.00 0.00 0.00 60 1015.9
20260507023037 42 318 10.0 12.0 0.00 0.00 0.00 59 1015.9
20260507022534 43 319 8.0 14.0 0.00 0.00 0.00 57 1015.9
20260507022029 43 311 12.0 14.0 0.00 0.00 0.00 57 1015.7
20260507021525 43 321 7.0 12.0 0.00 0.00 0.00 58 1015.7
20260507021022 43 289 9.0 9.0 0.00 0.00 0.00 58 1015.6
20260507020519 43 304 6.0 11.0 0.00 0.00 0.00 58 1015.8
20260507020016 43 301 9.0 12.0 0.00 0.00 0.00 57 1015.4
20260507015515 43 329 7.0 13.0 0.00 0.00 0.00 57 1015.5
20260507015012 44 335 10.0 14.0 0.00 0.00 0.00 55 1015.5
20260507014508 44 295 15.0 17.0 0.00 0.00 0.00 55 1015.5
20260507014004 44 301 11.0 15.0 0.00 0.00 0.00 55 1015.3
20260507013500 44 329 7.0 13.0 0.00 0.00 0.00 55 1015.2
20260507012958 44 320 10.0 12.0 0.00 0.00 0.00 54 1015.2
20260507012455 44 321 9.0 17.0 0.00 0.00 0.00 54 1015.2
20260507011951 44 330 7.0 14.0 0.00 0.00 0.00 56 1015.1
20260507011448 45 322 14.0 14.0 0.00 0.00 0.00 54 1015.2
20260507010944 45 336 13.0 16.0 0.00 0.00 0.00 53 1015.2
20260507010439 45 322 7.0 12.0 0.00 0.00 0.00 53 1015.2
20260507005936 45 331 8.0 16.0 0.00 0.00 0.00 51 1015.2
20260507005433 45 299 13.0 19.0 0.00 0.00 0.00 52 1015.0
20260507004930 45 318 12.0 17.0 0.00 0.00 0.00 50 1014.9
20260507004426 46 321 12.0 16.0 0.00 0.00 0.00 50 1015.0
20260507003924 46 315 9.0 15.0 0.00 0.00 0.00 50 1015.0
20260507003419 46 306 13.0 16.0 0.00 0.00 0.00 49 1015.2
20260507002914 47 345 10.0 18.0 0.00 0.00 0.00 49 1014.7
20260507002410 47 328 11.0 21.0 0.00 0.00 0.00 50 1015.0
20260507001908 47 310 8.0 18.0 0.00 0.00 0.00 48 1014.6
20260507001404 47 321 15.0 21.0 0.00 0.00 0.00 48 1014.7
20260507000902 48 317 17.0 20.0 0.00 0.00 0.00 48 1014.7
20260507000358 48 346 13.0 20.0 0.00 0.00 0.00 48 1014.5
20260506235853 48 317 15.0 23.0 0.00 0.00 0.00 48 1014.6
20260506235350 48 303 19.0 25.0 0.00 0.00 0.00 47 1014.7
20260506234846 49 305 16.0 20.0 0.00 0.00 0.00 47 1014.5
20260506234344 49 317 6.0 11.0 0.00 0.00 0.00 47 1014.5
20260506233841 49 340 12.0 15.0 0.00 0.00 0.00 46 1014.4
20260506233337 49 334 12.0 21.0 0.00 0.00 0.00 46 1014.4
20260506232835 49 353 22.0 22.0 0.00 0.00 0.00 46 1014.5
20260506232330 49 304 17.0 21.0 0.00 0.00 0.00 45 1014.4
20260506231827 50 314 25.0 25.0 0.00 0.00 0.00 44 1014.3
20260506231325 50 309 19.0 22.0 0.00 0.00 0.00 45 1014.1
20260506230822 50 320 10.0 18.0 0.00 0.00 0.00 44 1014.3
20260506230318 50 338 12.0 22.0 0.00 0.00 0.00 45 1014.3
20260506225814 50 297 17.0 22.0 0.00 0.00 0.00 44 1014.1
20260506225312 51 316 10.0 17.0 0.00 0.00 0.00 44 1014.1
20260506224809 50 301 12.0 20.0 0.00 0.00 0.00 44 1014.4
20260506224306 50 316 16.0 23.0 0.00 0.00 0.00 45 1014.1
20260506223802 50 318 11.0 23.0 0.00 0.00 0.00 45 1014.4
20260506223257 50 312 20.0 21.0 0.00 0.00 0.00 43 1014.3
20260506222754 49 331 6.0 15.0 0.00 0.00 0.00 46 1014.0
20260506222250 50 321 8.0 18.0 0.00 0.00 0.00 45 1014.3
20260506221748 50 349 8.0 15.0 0.00 0.00 0.00 46 1014.1
20260506221246 49 297 16.0 18.0 0.00 0.00 0.00 45 1014.1
20260506220743 50 314 17.0 24.0 0.00 0.00 0.00 46 1014.4
20260506220238 50 298 10.0 15.0 0.00 0.00 0.00 47 1013.9
20260506215735 50 276 12.0 20.0 0.00 0.00 0.00 45 1014.4
20260506215230 51 291 14.0 20.0 0.00 0.00 0.00 45 1014.3
20260506214727 50 334 12.0 22.0 0.00 0.00 0.00 44 1014.3
20260506214224 50 323 12.0 17.0 0.00 0.00 0.00 45 1014.0
20260506213722 50 299 16.0 18.0 0.00 0.00 0.00 46 1013.9
20260506213219 50 317 13.0 23.0 0.00 0.00 0.00 45 1014.3
20260506212717 52 315 15.0 24.0 0.00 0.00 0.00 44 1014.0
20260506212212 52 302 22.0 23.0 0.00 0.00 0.00 44 1013.9
20260506211708 52 300 18.0 25.0 0.00 0.00 0.00 44 1014.0
20260506211204 52 313 20.0 24.0 0.00 0.00 0.00 43 1013.8
20260506210701 50 314 14.0 18.0 0.00 0.00 0.00 45 1013.8
20260506210158 50 312 13.0 20.0 0.00 0.00 0.00 47 1013.9
20260506205655 50 305 14.0 21.0 0.00 0.00 0.00 45 1014.1
20260506205150 51 325 13.0 19.0 0.00 0.00 0.00 48 1014.1
20260506204648 50 302 11.0 15.0 0.00 0.00 0.00 47 1013.9
20260506204144 51 322 10.0 11.0 0.00 0.00 0.00 45 1013.9
20260506203643 50 341 7.0 15.0 0.00 0.00 0.00 47 1013.9
20260506203139 50 304 11.0 15.0 0.00 0.00 0.00 47 1014.0
20260506202638 50 356 9.0 12.0 0.00 0.00 0.00 46 1013.9
20260506202133 50 318 9.0 14.0 0.00 0.00 0.00 48 1014.1
20260506201630 50 349 6.0 11.0 0.00 0.00 0.00 48 1013.9
20260506201127 50 328 7.0 18.0 0.00 0.00 0.00 48 1014.4
20260506200623 50 270 7.0 15.0 0.00 0.00 0.00 48 1014.3
20260506200120 50 308 18.0 19.0 0.00 0.00 0.00 48 1014.3
20260506195617 50 312 15.0 20.0 0.00 0.00 0.00 49 1014.4
20260506195113 50 321 10.0 15.0 0.00 0.00 0.00 49 1014.3
20260506194611 50 322 8.0 12.0 0.00 0.00 0.00 46 1014.1
20260506194107 50 274 5.0 10.0 0.00 0.00 0.00 50 1014.4
20260506193605 49 274 5.0 15.0 0.00 0.00 0.00 48 1014.5
20260506193102 50 247 4.0 11.0 0.00 0.00 0.00 50 1014.5
20260506192559 50 298 6.0 9.0 0.00 0.00 0.00 49 1014.4
20260506192055 50 247 7.0 11.0 0.00 0.00 0.00 53 1014.1
20260506191551 48 254 8.0 14.0 0.00 0.00 0.00 51 1014.3
20260506191047 50 204 5.0 9.0 0.00 0.00 0.00 50 1014.5
20260506190545 49 242 14.0 14.0 0.00 0.00 0.00 52 1014.5
20260506190042 50 237 18.0 18.0 0.00 0.00 0.00 51 1014.6
20260506185539 49 257 8.0 13.0 0.00 0.00 0.00 52 1014.4
20260506185035 49 258 3.0 7.0 0.00 0.00 0.00 49 1014.3
20260506184533 50 258 8.0 13.0 0.00 0.00 0.00 51 1014.1
20260506184030 50 248 9.0 17.0 0.00 0.00 0.00 51 1014.5
20260506183526 50 335 13.0 13.0 0.00 0.00 0.00 50 1014.6
20260506183023 49 299 8.0 14.0 0.00 0.00 0.00 50 1014.5
20260506182520 50 315 15.0 15.0 0.00 0.00 0.00 49 1014.3
20260506182017 51 295 7.0 15.0 0.00 0.00 0.00 49 1014.3
20260506181515 50 304 8.0 22.0 0.00 0.00 0.00 48 1014.3
20260506181012 50 326 8.0 11.0 0.00 0.00 0.00 50 1014.3
20260506180508 50 319 8.0 13.0 0.00 0.00 0.00 49 1014.4
20260506180005 50 332 11.0 19.0 0.00 0.00 0.00 51 1014.4
20260506175501 48 300 7.0 7.0 0.00 0.00 0.00 50 1014.4
20260506174958 48 259 6.0 18.0 0.00 0.00 0.00 51 1014.6
20260506174456 49 322 7.0 12.0 0.00 0.00 0.00 52 1014.8
20260506173952 49 320 9.0 17.0 0.00 0.00 0.00 52 1014.9
20260506173450 48 351 6.0 10.0 0.00 0.00 0.00 53 1014.8
20260506172946 48 337 7.0 14.0 0.00 0.00 0.00 52 1015.0
20260506172444 48 322 6.0 13.0 0.00 0.00 0.00 53 1015.0
20260506171940 48 14 4.0 12.0 0.00 0.00 0.00 54 1015.0
20260506171438 49 341 8.0 11.0 0.00 0.00 0.00 54 1015.0
20260506170935 49 298 13.0 14.0 0.00 0.00 0.00 53 1014.9
20260506170431 49 245 7.0 15.0 0.00 0.00 0.00 55 1015.0
20260506165931 48 307 5.0 11.0 0.00 0.00 0.00 51 1015.0
20260506165429 48 252 6.0 11.0 0.00 0.00 0.00 54 1015.3
20260506164924 47 233 6.0 11.0 0.00 0.00 0.00 57 1014.9
20260506164420 47 305 9.0 10.0 0.00 0.00 0.00 55 1015.1
20260506163914 47 341 5.0 10.0 0.00 0.00 0.00 60 1015.2
20260506163408 47 345 3.0 5.0 0.00 0.00 0.00 57 1015.0
20260506162903 46 303 9.0 14.0 0.00 0.00 0.00 57 1015.0
20260506162401 47 318 9.0 12.0 0.00 0.00 0.00 59 1015.1
20260506161858 46 315 3.0 8.0 0.00 0.00 0.00 59 1015.0
20260506161356 46 297 6.0 9.0 0.00 0.00 0.00 59 1015.0
20260506160853 47 82 0.0 3.0 0.00 0.00 0.00 59 1015.3
20260506160350 46 359 5.0 9.0 0.00 0.00 0.00 61 1015.3
20260506155848 48 354 3.0 11.0 0.00 0.00 0.00 61 1015.0
20260506155344 46 266 5.0 14.0 0.00 0.00 0.00 61 1015.2
20260506153502 46 0 2.0 5.0 0.00 0.00 0.00 62 1015.2
20260506153000 46 335 6.0 10.0 0.00 0.00 0.00 65 1015.4
20260506152456 45 339 3.0 4.0 0.00 0.00 0.00 65 1015.3
20260506151954 46 344 5.0 7.0 0.00 0.00 0.00 65 1015.3
20260506151452 46 7 3.0 5.0 0.00 0.00 0.00 67 1015.1
20260506150949 46 304 4.0 9.0 0.00 0.00 0.00 65 1015.2
20260506150445 46 215 5.0 7.0 0.00 0.00 0.00 65 1015.0
20260506145942 45 175 1.0 5.0 0.00 0.00 0.00 67 1015.0
20260506145438 45 331 0.0 5.0 0.00 0.00 0.00 67 1015.2
20260506144936 45 251 3.0 6.0 0.00 0.00 0.00 68 1014.7
20260506144432 45 212 1.0 5.0 0.00 0.00 0.00 68 1014.9
20260506143931 45 211 3.0 5.0 0.00 0.00 0.00 68 1015.0
20260506143427 44 185 3.0 5.0 0.00 0.00 0.00 69 1015.0
20260506142926 43 219 3.0 6.0 0.00 0.00 0.00 70 1014.9
20260506142424 45 225 3.0 3.0 0.00 0.00 0.00 70 1014.7
20260506141921 44 150 4.0 4.0 0.00 0.00 0.00 73 1014.9
20260506141419 44 120 3.0 6.0 0.00 0.00 0.00 73 1014.8
20260506140917 43 72 4.0 5.0 0.00 0.00 0.00 75 1014.9
20260506140414 43 185 3.0 5.0 0.00 0.00 0.00 76 1014.9
20260506135911 43 154 4.0 7.0 0.00 0.00 0.00 75 1014.9
20260506135408 43 81 4.0 7.0 0.00 0.00 0.00 76 1014.9
20260506134904 42 94 7.0 7.0 0.00 0.00 0.00 77 1014.9
20260506134400 42 90 1.0 5.0 0.00 0.00 0.00 78 1014.8
20260506133857 42 92 4.0 7.0 0.00 0.00 0.00 78 1014.8
20260506133354 42 66 3.0 5.0 0.00 0.00 0.00 79 1014.8
20260506132850 42 88 5.0 6.0 0.00 0.00 0.00 80 1014.8
20260506132348 41 103 5.0 6.0 0.00 0.00 0.00 79 1014.8
20260506131846 42 90 0.0 4.0 0.00 0.00 0.00 79 1015.0
20260506131342 41 34 3.0 5.0 0.00 0.00 0.00 80 1014.8
20260506130839 41 66 3.0 6.0 0.00 0.00 0.00 81 1014.9
20260506130335 41 26 3.0 5.0 0.00 0.00 0.00 81 1014.7
20260506125833 40 125 5.0 7.0 0.00 0.00 0.00 82 1014.5
20260506125332 41 85 5.0 7.0 0.00 0.00 0.00 82 1014.4
20260506124830 41 103 4.0 6.0 0.00 0.00 0.00 82 1014.5
20260506124326 40 90 4.0 6.0 0.00 0.00 0.00 84 1014.3
20260506123824 39 103 4.0 6.0 0.00 0.00 0.00 86 1014.4
20260506123322 38 90 2.0 6.0 0.00 0.00 0.00 89 1014.3
20260506122819 37 145 3.0 7.0 0.00 0.00 0.00 91 1014.1
20260506122316 37 139 5.0 9.0 0.00 0.00 0.00 91 1013.8
20260506121814 36 141 8.0 10.0 0.00 0.00 0.00 92 1013.8
20260506121311 36 142 7.0 9.0 0.00 0.00 0.00 92 1013.8
20260506120808 36 134 6.0 9.0 0.00 0.00 0.00 92 1013.8
20260506120306 35 132 8.0 9.0 0.00 0.00 0.00 92 1013.7
20260506115803 36 138 7.0 9.0 0.00 0.00 0.00 92 1013.8
20260506115301 35 141 5.0 7.0 0.00 0.00 0.00 92 1013.7
20260506114759 35 155 5.0 7.0 0.00 0.00 0.00 93 1013.6
20260506114256 35 138 7.0 9.0 0.00 0.00 0.00 93 1013.9
20260506113754 35 147 8.0 9.0 0.00 0.00 0.00 93 1013.9
20260506113252 35 131 4.0 7.0 0.00 0.00 0.00 93 1013.7
20260506112748 35 159 6.0 7.0 0.00 0.00 0.00 94 1014.1
20260506112246 34 164 6.0 6.0 0.00 0.00 0.00 94 1014.0
20260506111743 33 139 4.0 5.0 0.00 0.00 0.00 94 1014.0
20260506111241 33 143 4.0 5.0 0.00 0.00 0.00 94 1013.8
20260506110737 33 137 4.0 5.0 0.00 0.00 0.00 94 1013.6
20260506110235 33 141 5.0 7.0 0.00 0.00 0.00 94 1013.5
20260506105732 33 118 3.0 5.0 0.00 0.00 0.00 94 1013.6
20260506105229 33 131 3.0 5.0 0.00 0.00 0.00 94 1013.5
20260506104727 33 134 4.0 6.0 0.00 0.00 0.00 94 1013.5
20260506104224 33 137 5.0 5.0 0.00 0.00 0.00 93 1013.0
20260506103721 33 134 5.0 5.0 0.00 0.00 0.00 93 1013.5
20260506103218 33 129 3.0 3.0 0.00 0.00 0.00 93 1013.4
20260506102716 33 135 2.0 3.0 0.00 0.00 0.00 93 1013.6
20260506102214 33 99 2.0 3.0 0.00 0.00 0.00 93 1013.5
20260506101710 33 106 0.0 2.0 0.00 0.00 0.00 93 1013.6